www.pogodaiklimat.ru

Погода и климат >> Архив погоды >> Россия >> Якутия >> Теплый Ключ


ПОГОДА в Теплом Ключе

  • Прогноз погоды в Теплом Ключе
  • Монитор погоды в Теплом Ключе

АРХИВ ПОГОДЫ в Теплом Ключе

Время (UTC), дата Ветер
(напр.,м/с)
 
Видим.   Явления Облачность Т
(С)
Тd
(С)
f
(%)
Тe
(С)
Тes
(С)
Комфортность P
(гПа)
Po
(гПа)
Тmin
(С)
Tmax
(С)
R
(мм)
R24
(мм)
S
(см)
06 13.02 ЮВ 1 50 км ясно -30.5 -34.4 69 -35 -34 опасность
обморожения
1024.1 983.3
09 13.02 В 1 10 км ясно -41.5 -43.8 78 -47 -47 опасность
обморожения
1026.8 984.0 -30.5
12 13.02 В 2 10 км ясно -44.3 -46.4 79 -54 -54 опасность
обморожения
1027.5 984.3
15 13.02 В 1 10 км слаб. снег 10/0 2000 м
[As op]
-41.5 -43.8 78 -47 -47 опасность
обморожения
1026.2 983.5
18 13.02 В 1 10 км слаб. снег 10/0 2000 м
[As op]
-43.5 -45.7 79 -49 -49 опасность
обморожения
1025.3 982.2
21 13.02 СВ 1 10 км слаб. снег 10/0 2000 м
[As op]
-45.2 -47.8 75 -51 -51 опасность
обморожения
1024.4 981.1 -45.2 0.3 37
00 14.02 штиль 0 50 км 3/0
[Ci fib]
-43.8 -46.3 76 -44 -43 опасность
обморожения
1023.8 980.7 -45.6
03 14.02 ЮВ 1 50 км 3/0
[Ci fib]
-29.8 -33.5 70 -34 -32 опасность
обморожения
1019.7 979.3
06 14.02 штиль 0 50 км ясно -27.0 -30.9 69 -27 -27 1019.3 972.4
09 14.02 В 1 10 км 3/0
[]
-38.5 -41.4 74 -44 -44 опасность
обморожения
1020.6 978.6 -26.8
12 14.02 В 1 10 км ясно -42.9 -45.0 80 -48 -48 опасность
обморожения
1021.5 978.7
15 14.02 В 1 10 км ясно -45.0 -47.2 78 -51 -51 опасность
обморожения
1021.1 978.0
18 14.02 штиль 0 10 км ясно -46.7 -49.6 72 -47 -47 опасность
обморожения
1020.7 977.3
21 14.02 В 1 10 км ясно -46.3 -48.1 82 -52 -52 опасность
обморожения
1020.1 976.9 -47.2 37
00 15.02 В 2 50 км ясно -44.8 -47.2 77 -55 -54 опасность
обморожения
1019.2 976.2
03 15.02 ЮВ 1 50 км 3/0
[Cs]
-30.9 -33.9 75 -35 -33 опасность
обморожения
1014.9 974.5
06 15.02 ЮВ 1 50 км 8/0
[Cs]
-29.0 -31.4 80 -33 -33 опасность
обморожения
1012.7 972.7
09 15.02 ЮВ 1 10 км слаб. снег 10/0 2000 м
[As op]
-30.5 -31.8 88 -35 -35 опасность
обморожения
1011.5 971.3 -28.9 0.0
12 15.02 штиль 0 10 км слаб. снег 10/0 2000 м
[As op]
-33.8 -35.0 89 -34 -34 опасность
обморожения
1010.8 970.1
15 15.02 В 1 10 км {снег} ясно -36.9 -38.5 85 -42 -42 опасность
обморожения
1009.4 968.3
18 15.02 штиль 0 10 км {снег} ясно -42.2 -43.8 84 -42 -42 опасность
обморожения
1009.2 967.1
21 15.02 штиль 0 10 км ясно -44.4 -46.4 80 -44 -44 опасность
обморожения
1008.4 966.0 -44.5 0.5 37
00 16.02 штиль 0 50 км ясно -42.1 -45.0 73 -42 -42 опасность
обморожения
1006.1 964.2 -45.0
03 16.02 ЮВ 1 50 км ясно -25.0 -29.0 69 -29 -27 1001.3 962.4
06 16.02 ЮВ 1 50 км ясно -25.0 -33.4 45 -29 -28 1000.4 961.5
09 16.02 штиль 0 10 км ясно -37.4 -41.5 65 -37 -37 опасность
обморожения
1003.3 962.4 -24.2
12 16.02 В 1 10 км ясно -41.7 -43.8 80 -47 -47 опасность
обморожения
1004.2 962.4
15 16.02 СВ 1 10 км ясно -43.5 -45.7 79 -49 -49 опасность
обморожения
1004.7 962.5
18 16.02 В 1 10 км ясно -44.7 -46.4 83 -50 -50 опасность
обморожения
1005.5 963.0
21 16.02 В 1 10 км ясно -45.5 -47.8 77 -51 -51 опасность
обморожения
1007.1 964.4 -45.8 37
00 17.02 штиль 0 50 км ясно -43.6 -46.9 70 -44 -44 опасность
обморожения
1008.4 966.0 -46.2
03 17.02 штиль 0 50 км ясно -30.6 -36.8 54 -31 -28 опасность
обморожения
1007.0 967.0
06 17.02 штиль 0 50 км ясно -26.1 -31.6 60 -26 -26 1008.1 968.7
09 17.02 штиль 0 10 км ясно -37.4 -41.5 65 -37 -37 опасность
обморожения
1012.3 971.0 -25.8
12 17.02 В 1 10 км ясно -42.7 -45.0 78 -48 -48 опасность
обморожения
1014.2 971.8
15 17.02 В 1 10 км ясно -44.7 -47.2 76 -50 -50 опасность
обморожения
1015.0 972.2
18 17.02 В 1 10 км ясно -45.9 -48.6 74 -52 -52 опасность
обморожения
1015.4 972.4
21 17.02 В 1 10 км ясно -46.4 -48.6 78 -52 -52 опасность
обморожения
1016.3 973.2 -46.4 37
00 18.02 СВ 1 50 км 3/0
[Ci fib]
-44.1 -48.3 63 -50 -49 опасность
обморожения
1016.8 974.1
03 18.02 ЮВ 1 50 км 3/0
[Cs]
-30.5 -36.8 54 -35 -33 опасность
обморожения
1015.0 974.6
06 18.02 штиль 0 50 км ясно -26.5 -33.0 54 -27 -26 1015.0 975.2
09 18.02 В 1 10 км ясно -36.1 -39.7 69 -41 -41 опасность
обморожения
1017.9 976.6 -26.5
12 18.02 В 1 10 км ясно -43.1 -46.2 71 -49 -49 опасность
обморожения
1020.9 978.1
15 18.02 В 1 10 км ясно -45.2 -47.8 75 -51 -51 опасность
обморожения
1022.5 979.2
18 18.02 В 1 10 км ясно -46.5 -49.6 70 -52 -52 опасность
обморожения
1023.6 980.1
21 18.02 В 1 10 км ясно -46.7 -49.6 72 -53 -53 опасность
обморожения
1024.8 981.1 -47.0 37
00 19.02 штиль 0 50 км ясно -42.5 -45.6 71 -43 -42 опасность
обморожения
1025.0 982.1
03 19.02 ЮВ 2 50 км ясно -28.1 -34.4 55 -35 -33 опасность
обморожения
1022.4 982.2
06 19.02 ЮВ 1 50 км ясно -25.4 -32.8 50 -29 -29 1021.7 982.0
09 19.02 В 1 10 км ясно -35.8 -40.1 64 -41 -41 опасность
обморожения
1023.4 981.8 -25.0
12 19.02 В 2 10 км ясно -40.4 -43.9 69 -50 -50 опасность
обморожения
1023.4 981.1
15 19.02 В 1 10 км ясно -42.3 -44.4 80 -48 -48 опасность
обморожения
1023.3 980.7
18 19.02 В 1 10 км ясно -43.1 -45.0 81 -49 -49 опасность
обморожения
1022.7 979.9
21 19.02 СВ 1 10 км ясно -43.1 -45.0 81 -49 -49 опасность
обморожения
1021.5 978.7 -43.3 37
00 20.02 В 1 50 км ясно -38.0 -41.6 69 -43 -42 опасность
обморожения
1020.2 978.4
03 20.02 штиль 0 50 км ясно -19.8 -26.6 55 -20 -17 1016.8 978.0

 

Местоположение метеостанции Теплый Ключ (Якутия, Россия): широта 62.78 долгота 136.80 высота над уровнем моря 289 м.

В архиве по умолчанию представлена погода в Теплом Ключе за последнюю неделю. Архивные данные за месяц целиком и за предыдущие месяцы, начиная с января 2011 года, Вы можете получить, выбрав интересующий диапазон дат из раскрывающегося списка и нажав кнопку "Ввод!".


*Определитесь, кто Вы:
робот инопланетянин человек

Внимание! Время в таблицах - всемирное. Для получения местного времени необходимо прибавить поправку, которая равна 9 ч.

Смотрите также архив погоды в соседних городах и на ближайших метеорологических станциях:

Погода в Охотском Перевозе (Якутия, Россия) (121 км)
Погода в Крест-Хальджае (Якутия, Россия) (122 км)
Погода в Томпо (Якутия, Россия) (139 км)
Погода в Восточной (Якутия, Россия) (150 км)
Погода в Ытык-Кюёле (Якутия, Россия) (175 км)
Погода в Чурапче (Якутия, Россия) (232 км)
Погода в Верхоянском Перевозе (Якутия, Россия) (249 км)
Погода в Агаякане (Якутия, Россия) (254 км)
Погода в Иэме (Якутия, Россия) (284 км)
Погода в Юртах (Якутия, Россия) (286 км)

Пояснения к столбцам:

Ветер - указаны скорость ветра в м/с - средняя за 10 мин, порывы в срок и между сроками (в фигурных скобках) и направление, откуда дует ветер: С - северный, СВ - северо-восточный, В - восточный, ЮВ - юго-восточный, Ю - южный, ЮЗ - юго-западный, З - западный, СЗ - северо-западный.
Видимость - горизонтальная дальность видимости в метрах или километрах. При видимости от 1 до 10 км при отсутствии осадков обычно наблюдается дымка, при ухудшении видимости до 1 км и менее - туман. В сухую погоду видимость может ухудшаться дымом, пылью или мглою.
Явления - указаны атмосферные явления, наблюдавшиеся в срок или в последний час перед сроком; фигурными скобками обозначены явления, наблюдавшиеся между сроками (за 1-3 часа до срока); квадратными скобками обозначены град или гололедные отложения с указанием их диаметра в мм.
Облачность - указаны через наклонную черту общая и нижняя облачность в баллах и высота нижней границы облаков в метрах; квадратными скобками обозначены формы облаков: Ci - перистые, Cs - перисто-слоистые, Cc - перисто-кучевые, Ac - высококучевые, As - высокослоистые, Sc - слоисто-кучевые, Ns - слоисто-дождевые, Cu - кучевые, Cb - кучево-дождевые. Подробнее классификацию облаков см. в Атласе облаков (PDF).
T - Температура воздуха - температура, измеренная на высоте 2 м над землей.
Td - Температура точки росы - температура, при понижении до которой содержащийся в воздухе водяной пар достигнет насыщения.
f - Относительная влажность воздуха - влажноcть воздуха, измеренная на высоте 2 м над землей.
Te - Эффективная температура - температура, которую ощущает одетый по сезону человек в тени. Характеристика душности погоды. При расчете учитывается влияние влажности воздуха и скорости ветра на теплоощущения человека.
Tes - Эффективная температура на солнце - температура, которую ощущает человек, с поправкой на солнечный нагрев. Характеристика знойности погоды. Зависит от высоты солнца над горизонтом, облачности и скорости ветра. Ночью, в пасмурную погоду, а также при ветре 12 м/с и более поправка равна нулю.
P - Атмосферное давление - приведенное к уровню моря атмосферное давление.
Po - Атмосферное давление - измеренное на уровне метеостанции атмосферное давление.
Tmin - Минимальная температура - минимум температуры воздуха на высоте 2 м над землей.
Tmax - Максимальная температура - максимум температуры воздуха на высоте 2 м над землей.
R - Количество осадков - Количество выпавших осадков за период времени, мм. При наведении курсора мыши на число - период времени, за который выпало указанное количество осадков.
R24 - Количество осадков - Количество выпавших осадков за 24 часа, мм.
S - Снежный покров - Высота снежного покрова, см. При наведении курсора мыши на число - состояние снежного покрова и степень покрытия местности в баллах.